When you browse on this site, cookies collect data to enhance your experience and personalize the content and advertising you see.
Visit our Privacy Policy to learn more. By continuing to use the site, you agree to this use of cookies and data.
  • In Lithuania
  • List of Countries
  • For 7 days
  • Water Temperature
  • Weather Map
  • Weather Widgets
  • user-avatar
    Login

    Hourly Weather Roseau

    Today, 14 November, Thursday

    Time Temperature Precipitation Wind Pressure Humidity
    00:00 +28°C° 0.3 mm 4 mps 758 mmHg 83%
    01:00 +28°C° 0.3 mm 4 mps 758 mmHg 84%
    02:00 +28°C° 0 mm 4 mps 758 mmHg 85%
    03:00 +28°C° 0.5 mm 4 mps 758 mmHg 85%
    04:00 +28°C° 0.5 mm 4 mps 758 mmHg 85%
    05:00 +28°C° 0.5 mm 4 mps 758 mmHg 85%
    06:00 +28°C° 0.3 mm 4 mps 758 mmHg 84%
    07:00 +28°C° 0.3 mm 4 mps 759 mmHg 83%
    08:00 +29°C° 0.3 mm 4 mps 759 mmHg 81%
    09:00 +29°C° 0.3 mm 4 mps 760 mmHg 78%
    10:00 +30°C° 0.3 mm 4 mps 760 mmHg 75%
    11:00 +30°C° 0.3 mm 4 mps 760 mmHg 72%
    12:00 +30°C° 0.2 mm 4 mps 759 mmHg 72%
    13:00 +30°C° 0.2 mm 4 mps 759 mmHg 73%
    14:00 +30°C° 0.2 mm 4 mps 758 mmHg 73%
    15:00 +30°C° 0.1 mm 4 mps 758 mmHg 75%
    16:00 +29°C° 0.1 mm 5 mps 758 mmHg 78%
    17:00 +29°C° 0.1 mm 5 mps 758 mmHg 80%
    18:00 +29°C° 0.1 mm 5 mps 758 mmHg 82%
    19:00 +28°C° 0.1 mm 5 mps 759 mmHg 83%
    20:00 +28°C° 0.1 mm 5 mps 759 mmHg 85%
    21:00 +28°C° 0.1 mm 5 mps 759 mmHg 85%
    22:00 +28°C° 0.1 mm 5 mps 759 mmHg 85%
    23:00 +28°C° 0.1 mm 5 mps 759 mmHg 85%

    Tomorrow, 15 November, Friday

    Time Temperature Precipitation Wind Pressure Humidity
    00:00 +28°C° 0.1 mm 5 mps 758 mmHg 84%
    01:00 +28°C° 0.1 mm 5 mps 758 mmHg 83%
    02:00 +28°C° 0.1 mm 5 mps 758 mmHg 83%
    03:00 +28°C° 0 mm 4 mps 758 mmHg 83%
    04:00 +28°C° 0 mm 4 mps 758 mmHg 82%
    05:00 +28°C° 0 mm 4 mps 757 mmHg 82%
    06:00 +28°C° 0 mm 4 mps 758 mmHg 82%
    07:00 +29°C° 0 mm 4 mps 758 mmHg 82%
    08:00 +29°C° 0 mm 4 mps 759 mmHg 82%
    09:00 +29°C° 0.1 mm 4 mps 759 mmHg 81%
    10:00 +29°C° 0.1 mm 4 mps 759 mmHg 80%
    11:00 +29°C° 0.1 mm 4 mps 759 mmHg 80%
    12:00 +30°C° 0.1 mm 4 mps 758 mmHg 79%
    13:00 +30°C° 0.1 mm 4 mps 757 mmHg 78%
    14:00 +30°C° 0.1 mm 4 mps 757 mmHg 77%
    15:00 +29°C° 0.1 mm 3 mps 756 mmHg 78%
    16:00 +29°C° 0.1 mm 3 mps 756 mmHg 79%
    17:00 +29°C° 0.1 mm 3 mps 756 mmHg 80%
    18:00 +29°C° 0 mm 3 mps 756 mmHg 81%
    19:00 +28°C° 0 mm 4 mps 757 mmHg 82%
    20:00 +28°C° 0 mm 4 mps 757 mmHg 83%
    21:00 +28°C° 0.1 mm 4 mps 757 mmHg 83%
    22:00 +28°C° 0.1 mm 3 mps 757 mmHg 84%
    23:00 +28°C° 0.1 mm 3 mps 757 mmHg 84%

    Day after tomorrow, 16 November, Saturday

    Time Temperature Precipitation Wind Pressure Humidity
    00:00 +28°C° 0 mm 3 mps 757 mmHg 83%
    01:00 +28°C° 0 mm 3 mps 756 mmHg 83%
    02:00 +28°C° 0 mm 3 mps 756 mmHg 82%
    03:00 +28°C° 0 mm 3 mps 755 mmHg 82%
    04:00 +28°C° 0 mm 3 mps 755 mmHg 82%
    05:00 +28°C° 0 mm 3 mps 755 mmHg 82%
    06:00 +28°C° 0 mm 3 mps 756 mmHg 81%
    07:00 +28°C° 0 mm 3 mps 756 mmHg 80%
    08:00 +29°C° 0 mm 3 mps 757 mmHg 79%
    09:00 +29°C° 0 mm 3 mps 757 mmHg 77%
    10:00 +30°C° 0 mm 2 mps 757 mmHg 75%
    11:00 +30°C° 0 mm 2 mps 757 mmHg 73%
    12:00 +30°C° 0 mm 2 mps 756 mmHg 74%
    13:00 +30°C° 0 mm 2 mps 755 mmHg 74%
    14:00 +30°C° 0 mm 2 mps 755 mmHg 75%
    15:00 +30°C° 0.1 mm 2 mps 755 mmHg 75%
    16:00 +29°C° 0.1 mm 2 mps 755 mmHg 75%
    17:00 +29°C° 0.1 mm 2 mps 754 mmHg 75%
    18:00 +29°C° 0 mm 2 mps 755 mmHg 77%
    19:00 +28°C° 0 mm 3 mps 755 mmHg 79%
    20:00 +28°C° 0 mm 3 mps 755 mmHg 81%
    21:00 +28°C° 0 mm 3 mps 755 mmHg 81%
    22:00 +28°C° 0 mm 3 mps 755 mmHg 81%
    23:00 +28°C° 0 mm 2 mps 755 mmHg 82%

    17 November, Sunday

    Time Temperature Precipitation Wind Pressure Humidity
    00:00 +28°C° 0 mm 2 mps 755 mmHg 82%
    01:00 +28°C° 0 mm 2 mps 755 mmHg 82%
    02:00 +28°C° 0 mm 2 mps 754 mmHg 82%
    03:00 +28°C° 0.1 mm 2 mps 754 mmHg 82%
    04:00 +28°C° 0.1 mm 2 mps 754 mmHg 83%
    05:00 +28°C° 0.1 mm 1 mps 755 mmHg 83%
    06:00 +28°C° 0.1 mm 1 mps 755 mmHg 81%
    07:00 +29°C° 0.1 mm 1 mps 755 mmHg 78%
    08:00 +29°C° 0.1 mm 1 mps 756 mmHg 76%
    09:00 +29°C° 0 mm 1 mps 756 mmHg 74%
    10:00 +30°C° 0 mm 1 mps 756 mmHg 72%
    11:00 +30°C° 0 mm 1 mps 756 mmHg 70%
    12:00 +30°C° 0.1 mm 1 mps 755 mmHg 71%
    13:00 +30°C° 0.1 mm 1 mps 755 mmHg 71%
    14:00 +30°C° 0.1 mm 1 mps 754 mmHg 72%
    15:00 +29°C° 0.1 mm 1 mps 754 mmHg 73%
    16:00 +29°C° 0.1 mm 1 mps 754 mmHg 74%
    17:00 +29°C° 0.1 mm 1 mps 754 mmHg 75%
    18:00 +29°C° 0 mm 1 mps 754 mmHg 75%
    19:00 +28°C° 0 mm 1 mps 755 mmHg 76%
    20:00 +28°C° 0 mm 1 mps 755 mmHg 77%
    21:00 +28°C° 0 mm 1 mps 755 mmHg 77%
    22:00 +28°C° 0 mm 1 mps 756 mmHg 77%
    23:00 +26°C° 0 mm 0 mps 756 mmHg 77%

    18 November, Monday

    Time Temperature Precipitation Wind Pressure Humidity
    00:00 +28°C° 0 mm 1 mps 756 mmHg 77%
    01:00 +28°C° 0 mm 1 mps 755 mmHg 78%
    02:00 +27°C° 0 mm 1 mps 755 mmHg 78%
    03:00 +27°C° 0 mm 1 mps 755 mmHg 78%
    04:00 +27°C° 0 mm 1 mps 755 mmHg 79%
    05:00 +27°C° 0 mm 2 mps 755 mmHg 79%
    06:00 +28°C° 0 mm 2 mps 756 mmHg 78%
    07:00 +28°C° 0 mm 2 mps 757 mmHg 77%
    08:00 +29°C° 0 mm 2 mps 757 mmHg 75%
    09:00 +29°C° 0.1 mm 2 mps 757 mmHg 73%
    10:00 +30°C° 0.1 mm 2 mps 757 mmHg 71%
    11:00 +30°C° 0.1 mm 2 mps 758 mmHg 69%
    12:00 +30°C° 0.6 mm 2 mps 757 mmHg 71%
    13:00 +30°C° 0.6 mm 3 mps 757 mmHg 73%
    14:00 +29°C° 0.6 mm 3 mps 756 mmHg 75%
    15:00 +29°C° 1.1 mm 3 mps 756 mmHg 76%
    16:00 +29°C° 1.1 mm 2 mps 756 mmHg 77%
    17:00 +29°C° 1.1 mm 2 mps 756 mmHg 77%
    18:00 +29°C° 0.2 mm 2 mps 757 mmHg 78%
    19:00 +28°C° 0.2 mm 1 mps 757 mmHg 78%
    20:00 +28°C° 0.2 mm 1 mps 758 mmHg 79%
    21:00 +28°C° 0.4 mm 2 mps 758 mmHg 80%
    22:00 +28°C° 0.4 mm 2 mps 758 mmHg 81%
    23:00 +28°C° 0.4 mm 2 mps 758 mmHg 82%

    19 November, Tuesday

    Time Temperature Precipitation Wind Pressure Humidity
    00:00 +28°C° 0.3 mm 3 mps 758 mmHg 82%
    01:00 +28°C° 0.3 mm 3 mps 758 mmHg 83%
    02:00 +28°C° 0.3 mm 3 mps 758 mmHg 83%
    03:00 +28°C° 0 mm 3 mps 758 mmHg 84%
    04:00 +28°C° 0 mm 3 mps 758 mmHg 84%
    05:00 +28°C° 0 mm 3 mps 758 mmHg 84%
    06:00 +28°C° 0 mm 3 mps 758 mmHg 83%
    07:00 +28°C° 0 mm 4 mps 759 mmHg 82%
    08:00 +29°C° 0 mm 4 mps 759 mmHg 81%
    09:00 +29°C° 0 mm 4 mps 759 mmHg 80%
    10:00 +30°C° 0 mm 4 mps 759 mmHg 78%
    11:00 +30°C° 0 mm 4 mps 759 mmHg 76%
    12:00 +30°C° 0.2 mm 4 mps 759 mmHg 76%
    13:00 +30°C° 0.2 mm 4 mps 759 mmHg 75%
    14:00 +30°C° 0.2 mm 4 mps 758 mmHg 74%
    15:00 +30°C° 0.1 mm 4 mps 758 mmHg 75%
    16:00 +29°C° 0.1 mm 4 mps 758 mmHg 77%
    17:00 +29°C° 0.1 mm 4 mps 758 mmHg 78%
    18:00 +29°C° 0.1 mm 4 mps 758 mmHg 79%
    19:00 +29°C° 0.1 mm 4 mps 759 mmHg 81%
    20:00 +29°C° 0.1 mm 4 mps 759 mmHg 82%
    21:00 +29°C° 0 mm 4 mps 759 mmHg 83%
    22:00 +28°C° 0 mm 4 mps 759 mmHg 83%
    23:00 +28°C° 0 mm 4 mps 759 mmHg 83%
    Show more